This demonstration page uses our WeatherBlox Daily Observations layout. Learn more.

Left ArrowRight Arrow

38.88101, -77.10428

Hourly Observations for July 28, 2021

Temp ( °F °C ) Dew Point ( °F °C ) Humidity (%) Winds ( mph kmh ) Pressure ( in mb ) Visibility ( mi km ) Precip ( " mm )
12:52 am 00:52 Clear 79 26.1 66 18.9 65 65 N N/A 29.96 1015 10 16 N/A
1:52 am 01:52 Clear 77 25 65 18.3 66 66 WSW 5 7 29.96 1015 10 16 N/A
2:52 am 02:52 Clear 76 24.4 66 18.9 72 72 WSW 5 7 29.95 1014 10 16 N/A
3:52 am 03:52 Clear 76 24.4 68 20 77 77 N 3 6 29.96 1015 10 16 N/A
4:52 am 04:52 Partly Cloudy 76 24.4 66 18.9 72 72 N N/A 29.97 1015 10 16 N/A
5:52 am 05:52 Partly Cloudy 76 24.4 62 16.7 62 62 NNW 9 15 29.98 1015 10 16 N/A
6:52 am 06:52 Mostly Sunny 76 24.4 63 17.2 64 64 N 6 9 29.98 1015 10 16 N/A
7:52 am 07:52 Mostly Sunny 79 26.1 64 17.8 60 60 NNW 7 11 30.00 1016 10 16 N/A
8:52 am 08:52 Mostly Sunny 83 28.3 64 17.8 53 53 NE 5 7 30.00 1016 10 16 N/A
9:52 am 09:52 Sunny 86 30 64 17.8 48 48 N 7 11 30.00 1016 10 16 N/A
10:52 am 10:52 Sunny 88 31.1 64 17.8 45 45 N 8 13 30.00 1016 10 16 N/A
11:52 am 11:52 Mostly Sunny 90 32.2 63 17.2 41 41 N 13 20 30.00 1016 10 16 N/A
12:52 pm 12:52 Mostly Sunny 91 32.8 63 17.2 39 39 N 9 15 29.98 1015 10 16 N/A
1:52 pm 13:52 Partly Cloudy 92 33.3 62 16.7 37 37 NNW 6 9 29.97 1015 10 16 N/A
2:52 pm 14:52 Partly Cloudy 93 33.9 62 16.7 36 36 VRB 5 7 29.96 1015 10 16 N/A
3:52 pm 15:52 Mostly Cloudy 92 33.3 63 17.2 38 38 N N/A 29.95 1014 10 16 N/A
4:52 pm 16:52 Partly Cloudy 93 33.9 63 17.2 37 37 NNE 7 11 29.95 1014 10 16 N/A
5:52 pm 17:52 Mostly Cloudy 88 31.1 67 19.4 50 50 ESE 12 19 29.95 1014 10 16 N/A
6:52 pm 18:52 Mostly Cloudy 86 30 66 18.9 51 51 ESE 12 19 29.95 1014 10 16 N/A
7:52 pm 19:52 Mostly Cloudy 84 28.9 67 19.4 57 57 ESE 8 13 29.95 1014 10 16 N/A
8:52 pm 20:52 Mostly Cloudy 83 28.3 65 18.3 55 55 SE 3 6 29.97 1015 10 16 N/A
9:52 pm 21:52 Clear with Nearby Thunderstorms 82 27.8 67 19.4 60 60 SSE 5 7 29.98 1015 10 16 N/A
10:25 pm 22:25 Cloudy with Strong Thunderstorms 81 27.2 68 20 65 65 WSW 5 7 30.02 1017 4 6 0.07 1.78
10:30 pm 22:30 Cloudy with Strong Thunderstorms 77 25 69 20.6 77 77 N N/A 30.02 1017 3 4 0.13 3.30
10:37 pm 22:37 Cloudy with Strong Thunderstorms 76 24.4 70 21.1 82 82 ESE 6 9 30.03 1017 2 3 0.36 9.14
10:39 pm 22:39 Cloudy with Strong Thunderstorms 76 24.4 70 21.1 82 82 VRB 3 6 30.03 1017 2 3 0.39 9.91
10:44 pm 22:44 Cloudy with Strong Thunderstorms 76 24.4 70 21.1 82 82 W 5 7 30.03 1017 4 6 0.43 10.92
10:52 pm 22:52 Cloudy with Thunderstorms 76 24.4 70 21.1 82 82 WNW 7 11 30.02 1017 8 13 0.45 11.43
10:54 pm 22:54 Cloudy with Thunderstorms 76 24.4 70 21.1 82 82 WNW 6 9 30.02 1017 10 16 0.00 0.00
11:31 pm 23:31 Mostly Cloudy with Nearby Thunderstorms 75 23.9 69 20.6 82 82 WSW 12 19 30.02 1017 10 16 0.00 0.00
11:42 pm 23:42 Mostly Cloudy 74 23.3 68 20 82 82 SW 15 24 30.02 1017 10 16 0.00 0.00
11:52 pm 23:52 Cloudy 74 23.3 68 20 82 82 SSW 15 24 30.01 1016 10 16 0.00 0.00

Powered by AerisWeather